Location: Holmes Observatory
(37.1039°N, 122.0513°W)
Time: 13:26:26
(UTC-07:00)

Daily predictions for brighter satellites

Satellite Brightness Start Highest point End
(mag) Time Altitude Azimuth Time Altitude Azimuth Time Altitude Azimuth
Cosmos 909 Rocket 4.4 20:39:33 10° S 20:45:42 53° ESE 20:52:51 10° NE
Cosmos 2221 Rocket 4.1 20:47:42 10° NNW 20:52:07 65° W 20:56:30 10° S
Cosmos 1733 Rocket 3.8 20:51:48 10° SSE 20:55:49 34° E 20:59:48 10° NNE
COSMOS 2406 4.0 20:51:46 10° N 20:57:04 36° ENE 21:02:18 10° SE
Cosmos 2184 Rocket 4.2 20:51:20 10° SSE 20:57:12 48° E 21:03:05 10° NNE
USA 186 1.8 20:55:30 10° S 20:58:28 74° W 21:01:40 10° NNW
Cosmos 2056 Rocket 3.7 20:57:44 10° S 21:02:42 48° ESE 21:07:37 10° NNE
H-2A R/B 1.5 21:01:25 10° WSW 21:03:30 20° SSW 21:04:31 13° SE
ATLAS 5 CENTAUR R/B 3.0 20:58:49 10° NNW 21:04:36 45° NE 21:10:26 11° ESE
Cosmos 1371 Rocket 4.0 20:59:27 10° S 21:04:45 72° ESE 21:10:02 10° NNE
Cosmos 1356 Rocket 3.5 21:03:23 10° S 21:07:31 63° E 21:11:45 10° NNE
Cosmos 2181 Rocket 4.4 21:05:46 10° NNW 21:12:10 69° W 21:18:29 10° S
Cosmos 2278 Rocket 3.5 21:09:26 10° SE 21:13:21 19° E 21:17:17 10° NE
Cosmos 1825 4.0 21:12:50 13° ESE 21:14:06 14° E 21:16:12 10° NE
SL-27 R/B 3.8 21:11:11 10° N 21:14:17 25° ENE 21:16:29 15° ESE
Cosmos 1844 4.4 21:11:09 10° SSE 21:16:12 33° ESE 21:21:19 10° NE
H-2A R/B 2.4 21:18:20 13° SE 21:22:02 46° ENE 21:26:08 10° N
Cosmos 1844 Rocket 2.8 21:18:21 10° S 21:23:50 53° ESE 21:29:19 10° NNE
CENTAUR R/B 3.2 21:16:07 10° NNW 21:24:05 82° ENE 21:31:33 14° SE
YAOGAN 6 4.2 21:26:29 16° E 21:27:47 20° ENE 21:30:22 10° NNE
Cosmos 1340 Rocket 4.0 21:24:00 10° SSW 21:27:47 44° WNW 21:31:39 10° N
Cosmos 1408 4.0 21:27:07 18° ESE 21:28:06 20° E 21:30:51 10° NE
Cosmos 2074 Rocket 4.1 21:25:12 10° S 21:31:30 83° W 21:37:48 10° N
NOSS 2-2 (D) 3.9 21:29:51 10° SW 21:33:54 66° NW 21:38:30 10° NNE
Cosmos 1939 Rocket 2.7 21:32:30 14° SSE 21:35:43 83° ENE 21:39:38 10° N
Cosmos 1782 2.8 21:33:00 10° N 21:37:00 62° E 21:39:43 19° SSE
Meteor 1-27 Rocket 4.1 21:34:33 10° N 21:39:54 46° ENE 21:43:18 21° SE
PSLV R/B 4.1 21:39:34 27° E 21:40:11 30° ENE 21:42:49 10° N
Cosmos 1610 Rocket 4.4 21:34:06 10° S 21:40:13 78° E 21:46:26 10° N
Okean 2 Rocket 4.3 21:40:10 21° ESE 21:41:12 23° E 21:44:41 10° NE
Envisat 2.9 21:37:18 14° SSE 21:41:40 81° ENE 21:46:45 10° N
Cosmos 1624 Rocket 4.5 21:36:47 10° SSW 21:41:59 64° WNW 21:47:16 10° NNE
ERBS 2.4 21:40:23 10° NW 21:43:51 71° NE 21:45:18 32° SE
Sich 1 Rocket 3.6 21:41:44 10° S 21:46:17 76° E 21:50:52 10° N
H-2A R/B 3.9 21:46:19 14° E 21:48:20 17° ENE 21:51:42 10° NNE
Nadezhda 3 Rocket 4.2 21:42:36 10° N 21:48:51 55° E 21:53:01 21° SSE
Cosmos 1238 Rocket 3.4 21:46:44 10° NNE 21:49:34 29° E 21:49:56 28° E
Cosmos 1606 3.0 21:46:16 10° N 21:50:07 50° E 21:51:38 31° SE
SPOT 5 3.1 21:47:20 20° SSE 21:50:55 71° ENE 21:56:15 10° N
Atlas Centaur 2 2.0 21:48:26 10° WSW 21:51:34 29° S 21:51:55 28° SSE
Cosmos 1674 Rocket 3.6 21:48:29 10° N 21:52:58 82° W 21:56:08 19° S
GPS 2-05 Rocket1 3.7 21:56:18 10° SW 21:59:12 33° S 21:59:12 33° S
Terra 3.6 22:00:11 15° E 22:01:11 16° ENE 22:04:05 10° NNE
Cosmos 407 Rocket 3.5 21:57:26 10° NNW 22:02:44 80° ENE 22:05:30 29° SSE
Coronas F rocket 4.5 22:01:37 10° WSW 22:03:04 14° WNW 22:04:32 10° NW
SPOT 1/Viking Rocket 3.9 22:00:49 29° SE 22:03:06 50° ENE 22:08:08 10° N
Cosmos 1782 Rocket 3.8 22:01:33 33° SSE 22:03:11 51° E 22:07:31 10° NNE
PSLV R/B 3.2 22:00:08 10° WNW 22:03:37 88° SSW 22:04:22 52° ESE
Cosmos 2341 Rocket 4.0 21:59:14 16° S 22:04:21 68° E 22:10:35 10° NNE
Cosmos 1452 Rocket 3.4 22:00:36 10° SSW 22:05:50 80° ESE 22:11:08 10° NNE
ERS-1 Rocket 4.3 22:02:52 10° SSW 22:07:28 36° W 22:12:06 10° NNW
Abrixas rocket 4.1 22:06:45 10° W 22:09:24 21° SW 22:09:54 20° SSW
BREEZE-M DEB (TANK) 3.9 22:02:23 10° WNW 22:14:14 51° NNE 22:16:25 26° E
Cosmos 1190 Rocket 4.3 22:09:19 10° NNW 22:14:26 62° WSW 22:17:17 26° S
Cosmos 1140 Rocket 4.2 22:11:53 10° N 22:16:42 38° ENE 22:17:58 33° E
Okean 3 3.4 22:14:17 10° N 22:18:34 69° E 22:19:27 52° SE
Cosmos 1975 Rocket 3.0 22:17:07 10° N 22:21:23 61° E 22:22:05 53° SE
Meteor 2-13 Rocket 4.4 22:19:48 29° S 22:23:06 70° E 22:29:14 10° NNE
SL-8 Rocket 4.0 22:26:14 36° SSE 22:28:47 62° E 22:34:57 10° NNE
CZ-4B R/B 3.4 22:26:26 10° NNE 22:31:25 82° WNW 22:33:52 30° SSW
Cosmos 1184 Rocket 3.1 22:31:22 63° W 22:31:26 63° W 22:34:46 10° N
USA 245 3.2 22:34:05 60° WNW 22:34:05 60° WNW 22:37:12 10° NNW
SL-08 RB Rocket 3.6 22:35:15 61° SE 22:35:58 76° ENE 22:40:36 10° N
Cosmos 1378 Rocket 4.1 22:32:59 10° NNW 22:37:11 51° W 22:38:29 37° SW
Meteor 1-14 Rocket 4.2 22:37:59 48° SSE 22:39:23 64° E 22:44:57 10° NNE
USA 234 3.1 22:33:45 10° NE 22:40:17 76° SE 22:46:48 10° SW
Cosmos 1850 Rocket 4.3 22:36:29 10° N 22:41:39 50° ENE 22:42:23 46° E
Cosmos 676 Rocket 4.4 22:39:20 10° NNW 22:44:24 56° WSW 22:45:58 40° SSW
ARGOS 3.2 22:42:53 46° S 22:44:31 76° WSW 22:49:53 10° NNW
Cosmos 2151 Rocket 4.0 22:46:51 51° ENE 22:46:51 51° ENE 22:50:46 10° NNE
CZ-4 R/B 3.8 22:42:45 10° N 22:47:25 75° WNW 22:48:40 48° SSW
ATLAS 5 CENTAUR R/B 3.7 22:43:51 10° NW 22:49:13 31° WSW 22:52:00 23° SSW
Cosmos 1825 3.9 22:47:44 21° WSW 22:49:25 29° WNW 22:52:48 10° NNW
Cosmos 1954 Rocket 4.2 22:46:09 10° NNW 22:51:18 64° WSW 22:52:24 50° SSW
COSMOS 2487 3.3 22:50:00 10° NNW 22:52:57 51° WNW 22:52:57 51° WNW
Cosmos 2278 Rocket 2.9 22:51:28 10° SW 22:56:58 51° WNW 23:02:30 10° NNE
Cosmos 1741 Rocket 3.9 22:55:03 10° NNW 23:00:16 72° ENE 23:00:32 70° E
Cosmos 864 Rocket 4.3 22:59:42 58° SSE 23:00:52 75° E 23:07:01 10° N
CZ-4C R/B 3.8 23:03:28 56° NNW 23:03:28 56° NNW 23:06:41 10° NNW
Cosmos 1833 Rocket 3.4 22:58:39 10° N 23:03:52 38° ENE 23:04:19 37° ENE
Cosmos 2366 rocket 3.9 23:05:58 55° S 23:07:31 90° WNW 23:13:52 10° N
APEX 4.0 23:11:13 54° NW 23:11:13 54° NW 23:15:32 10° NNE
Cosmos 2082 Rocket 2.2 23:13:19 10° NNW 23:19:00 66° ENE 23:19:06 66° ENE
Cosmos 1242 Rocket 4.5 23:16:40 10° NNW 23:19:08 27° WNW 23:19:08 27° WNW
Landsat 7 4.4 23:22:48 49° W 23:22:48 49° W 23:27:21 10° NNW
USA 229 DEB 4.0 23:18:43 10° NNW 23:25:44 58° NE 23:27:08 50° E
USA 229 4.0 23:18:49 10° NNW 23:25:50 58° NE 23:27:15 50° E
H-2A R/B 2.4 23:26:57 58° WSW 23:27:14 59° W 23:32:33 10° NNW
Cosmos 2297 4.2 23:26:41 39° WSW 23:28:34 56° WNW 23:34:13 10° NNE
Terra 2.6 23:39:04 46° WNW 23:39:04 46° WNW 23:43:06 10° NNW
Spot 4 4.3 23:39:42 58° NW 23:39:42 58° NW 23:43:49 10° NNW
ASTEX 1 3.8 23:40:41 10° N 23:44:49 60° NNW 23:44:49 60° NNW
Lacrosse 5 4.4 23:53:43 11° ENE 23:53:43 11° ENE 23:53:52 10° ENE
Cosmos 1727 Rocket 4.4 23:44:44 10° NNW 23:50:42 53° W 23:51:13 51° WSW
